TimeEDT,TemperatureF,Dew PointF,Humidity,Sea Level PressureIn,VisibilityMPH,Wind Direction,Wind SpeedMPH,Gust SpeedMPH,PrecipitationIn,Events,Conditions,WindDirDegrees,DateUTC
12:51 AM,60.1,51.1,72,29.99,10.0,NNE,5.8,-,N/A,,Clear,20,2013-07-25 04:51:00
1:51 AM,59.0,51.1,75,29.97,10.0,North,4.6,-,N/A,,Clear,360,2013-07-25 05:51:00
2:51 AM,57.9,51.1,78,29.97,10.0,NNW,3.5,-,N/A,,Scattered Clouds,330,2013-07-25 06:51:00
3:51 AM,57.0,50.0,77,29.96,10.0,North,4.6,-,N/A,,Partly Cloudy,10,2013-07-25 07:51:00
4:51 AM,57.0,51.1,81,29.97,10.0,NNW,4.6,-,N/A,,Mostly Cloudy,340,2013-07-25 08:51:00
5:51 AM,57.0,50.0,77,29.98,10.0,North,3.5,-,N/A,,Clear,10,2013-07-25 09:51:00
6:51 AM,57.9,50.0,75,29.98,10.0,NNE,3.5,-,N/A,,Clear,20,2013-07-25 10:51:00
7:51 AM,61.0,51.1,70,30.01,10.0,ENE,6.9,-,N/A,,Clear,60,2013-07-25 11:51:00
8:51 AM,62.1,51.1,67,30.03,10.0,NE,12.7,-,N/A,,Mostly Cloudy,50,2013-07-25 12:51:00
9:51 AM,63.0,51.1,65,30.03,10.0,NE,11.5,-,N/A,,Scattered Clouds,50,2013-07-25 13:51:00
10:07 AM,64.4,51.8,64,30.03,10.0,NE,10.4,-,N/A,,Mostly Cloudy,50,2013-07-25 14:07:00
10:32 AM,64.4,51.8,64,30.03,10.0,NNE,10.4,-,N/A,,Scattered Clouds,20,2013-07-25 14:32:00
10:51 AM,66.0,53.1,63,30.02,10.0,NE,10.4,-,N/A,,Partly Cloudy,50,2013-07-25 14:51:00
11:51 AM,66.0,53.1,63,30.05,10.0,ENE,10.4,-,N/A,,Overcast,60,2013-07-25 15:51:00
12:51 PM,68.0,54.0,61,30.06,10.0,NE,9.2,-,N/A,,Overcast,50,2013-07-25 16:51:00
1:03 PM,68.0,53.6,60,30.06,10.0,ENE,8.1,-,N/A,,Overcast,60,2013-07-25 17:03:00
1:51 PM,70.0,54.0,57,30.05,10.0,NE,10.4,-,N/A,,Overcast,50,2013-07-25 17:51:00
2:51 PM,69.1,54.0,58,30.04,10.0,East,11.5,-,N/A,,Overcast,80,2013-07-25 18:51:00
3:28 PM,71.6,55.4,57,30.04,10.0,East,10.4,-,N/A,,Overcast,80,2013-07-25 19:28:00
3:51 PM,72.0,55.9,57,30.03,10.0,East,8.1,-,N/A,,Overcast,80,2013-07-25 19:51:00
4:51 PM,72.0,57.0,59,30.03,10.0,ENE,12.7,-,N/A,,Overcast,70,2013-07-25 20:51:00
5:51 PM,71.1,57.0,61,30.03,10.0,East,8.1,-,N/A,,Overcast,100,2013-07-25 21:51:00
6:51 PM,72.0,59.0,64,30.04,10.0,ESE,9.2,-,N/A,,Overcast,120,2013-07-25 22:51:00
7:51 PM,70.0,59.0,68,30.05,10.0,East,4.6,-,N/A,,Mostly Cloudy,100,2013-07-25 23:51:00
8:51 PM,66.9,57.9,73,30.04,10.0,NNE,5.8,-,N/A,,Clear,20,2013-07-26 00:51:00
9:51 PM,66.9,57.9,73,30.06,10.0,NE,5.8,-,N/A,,Overcast,40,2013-07-26 01:51:00
10:51 PM,64.0,57.9,80,30.06,10.0,NE,4.6,-,N/A,,Mostly Cloudy,50,2013-07-26 02:51:00
11:51 PM,63.0,57.9,84,30.05,10.0,NNE,3.5,-,N/A,,Scattered Clouds,20,2013-07-26 03:51:00